KX4DU Weather Reports


time (UTC)temp
F
wind
direction
speed
knots
gust
knots
rain 1hr
in
rain 24hr
in
rain mn
in
humidity
%
barometer
mb
20260504012517 62 0 0.0 1.7 0.00 0.00 0.00 70 1018.2
20260504012020 62 0 0.0 0.9 0.00 0.00 0.00 69 1018.1
20260504011532 63 0 0.0 3.5 0.00 0.00 0.00 68 1018.0
20260504011014 63 0 0.0 3.5 0.00 0.00 0.00 67 1018.0
20260504010515 63 0 0.0 1.7 0.00 0.00 0.00 66 1017.9
20260504010031 64 0 0.0 3.5 0.00 0.00 0.00 65 1017.9
20260504005518 65 248 0.0 3.5 0.00 0.00 0.00 63 1017.9
20260504005015 65 360 0.9 3.5 0.00 0.00 0.00 63 1018.0
20260504004534 65 360 1.7 3.5 0.00 0.00 0.00 64 1017.8
20260504004014 65 360 0.0 2.6 0.00 0.00 0.00 64 1017.7
20260504003514 65 0 0.0 3.5 0.00 0.00 0.00 63 1017.7
20260504003030 66 0 0.9 4.3 0.00 0.00 0.00 61 1017.7
20260504002539 67 0 0.9 7.0 0.00 0.00 0.00 60 1017.7
20260504002018 67 0 0.9 7.0 0.00 0.00 0.00 58 1017.6
20260504001533 67 360 1.7 4.3 0.00 0.00 0.00 57 1017.6
20260504001018 68 360 1.7 7.0 0.00 0.00 0.00 58 1017.6
20260504000518 68 360 1.7 7.0 0.00 0.00 0.00 56 1017.5
20260504000037 69 360 1.7 8.7 0.00 0.00 0.00 56 1017.4
20260503235516 69 244 3.5 8.7 0.00 0.00 0.00 55 1017.5
20260503235015 70 254 1.7 7.8 0.00 0.00 0.00 55 1017.5
20260503234545 71 282 3.5 7.8 0.00 0.00 0.00 53 1017.5
20260503234019 73 242 1.7 7.0 0.00 0.00 0.00 51 1017.5
20260503233518 74 249 2.6 7.0 0.00 0.00 0.00 46 1017.5
20260503233034 76 228 1.7 3.5 0.00 0.00 0.00 39 1017.5
20260503232517 76 297 1.7 3.5 0.00 0.00 0.00 37 1017.5
20260503232017 76 49 0.9 2.6 0.00 0.00 0.00 36 1017.5
20260503231532 76 48 0.0 4.3 0.00 0.00 0.00 36 1017.5
20260503231022 77 0 0.9 4.3 0.00 0.00 0.00 37 1017.6
20260503230520 77 261 0.0 5.2 0.00 0.00 0.00 37 1017.5
20260503230039 76 0 0.9 5.2 0.00 0.00 0.00 36 1017.6
20260503225521 76 244 1.7 6.1 0.00 0.00 0.00 36 1017.5
20260503225018 76 0 1.7 6.1 0.00 0.00 0.00 37 1017.5
20260503224536 76 248 2.6 6.1 0.00 0.00 0.00 36 1017.5
20260503224015 76 271 1.7 7.8 0.00 0.00 0.00 35 1017.5
20260503223521 76 26 1.7 7.8 0.00 0.00 0.00 35 1017.5
20260503223038 77 16 0.9 6.1 0.00 0.00 0.00 36 1017.5
20260503222519 77 0 0.9 6.1 0.00 0.00 0.00 33 1017.6
20260503222022 77 279 0.9 7.0 0.00 0.00 0.00 35 1017.5
20260503221536 77 76 2.6 7.0 0.00 0.00 0.00 35 1017.5
20260503221020 77 257 0.9 7.0 0.00 0.00 0.00 35 1017.5
20260503220522 76 285 1.7 7.8 0.00 0.00 0.00 35 1017.6
20260503220045 76 67 1.7 7.8 0.00 0.00 0.00 35 1017.7
20260503215520 76 9 4.3 7.8 0.00 0.00 0.00 35 1017.7
20260503215017 77 19 1.7 5.2 0.00 0.00 0.00 35 1017.7
20260503214531 77 51 1.7 5.2 0.00 0.00 0.00 37 1017.7
20260503214017 76 248 1.7 5.2 0.00 0.00 0.00 35 1017.8
20260503213517 76 218 0.9 7.8 0.00 0.00 0.00 36 1017.8
20260503213037 75 63 2.6 7.8 0.00 0.00 0.00 35 1017.8
20260503212518 75 51 2.6 9.6 0.00 0.00 0.00 36 1017.9
20260503212018 76 23 3.5 9.6 0.00 0.00 0.00 35 1018.0
20260503211536 76 38 1.7 9.6 0.00 0.00 0.00 37 1018.0
20260503211020 75 0 2.6 7.8 0.00 0.00 0.00 34 1018.0
20260503210519 75 90 1.7 7.0 0.00 0.00 0.00 36 1018.1
20260503210037 75 24 2.6 7.8 0.00 0.00 0.00 35 1018.2
20260503205519 75 90 2.6 7.8 0.00 0.00 0.00 37 1018.2
20260503205019 76 26 4.3 7.8 0.00 0.00 0.00 36 1018.3
20260503204534 77 30 2.6 7.8 0.00 0.00 0.00 33 1018.4
20260503204017 76 5 2.6 7.8 0.00 0.00 0.00 33 1018.5
20260503203518 76 275 2.6 7.8 0.00 0.00 0.00 34 1018.7
20260503203033 76 253 3.5 7.8 0.00 0.00 0.00 33 1018.7
20260503202518 76 256 1.7 8.7 0.00 0.00 0.00 34 1018.7
20260503202018 76 220 4.3 9.6 0.00 0.00 0.00 34 1018.8
20260503201534 76 17 3.5 10.4 0.00 0.00 0.00 33 1018.9
20260503201018 75 352 2.6 10.4 0.00 0.00 0.00 34 1018.9
20260503200517 75 24 3.5 11.3 0.00 0.00 0.00 32 1018.9
20260503200043 76 36 3.5 11.3 0.00 0.00 0.00 32 1019.1
20260503195514 75 253 5.2 11.3 0.00 0.00 0.00 32 1019.1
20260503195018 76 261 3.5 10.4 0.00 0.00 0.00 32 1019.3
20260503194538 76 250 2.6 10.4 0.00 0.00 0.00 32 1019.3
20260503194019 76 234 0.9 8.7 0.00 0.00 0.00 35 1019.4
20260503193518 76 275 2.6 8.7 0.00 0.00 0.00 32 1019.5
20260503193036 75 258 1.7 7.0 0.00 0.00 0.00 32 1019.6
20260503192518 75 9 2.6 7.0 0.00 0.00 0.00 34 1019.6
20260503192017 75 5 2.6 11.3 0.00 0.00 0.00 35 1019.6
20260503191534 75 142 4.3 11.3 0.00 0.00 0.00 34 1019.8
20260503191018 75 241 5.2 10.4 0.00 0.00 0.00 33 1019.8
20260503190518 75 227 3.5 10.4 0.00 0.00 0.00 34 1020.0
20260503190037 74 209 4.3 10.4 0.00 0.00 0.00 33 1020.0
20260503185518 74 47 4.3 10.4 0.00 0.00 0.00 36 1020.1
20260503185019 74 242 3.5 12.2 0.00 0.00 0.00 35 1020.2
20260503184542 74 111 4.3 12.2 0.00 0.00 0.00 38 1020.3
20260503184017 73 269 6.1 13.0 0.00 0.00 0.00 36 1020.4
20260503183518 74 292 4.3 13.0 0.00 0.00 0.00 36 1020.5
20260503183050 73 254 4.3 13.0 0.00 0.00 0.00 36 1020.4
20260503182518 73 267 5.2 14.8 0.00 0.00 0.00 35 1020.5
20260503182018 73 279 6.1 14.8 0.00 0.00 0.00 36 1020.5
20260503181532 74 360 5.2 14.8 0.00 0.00 0.00 36 1020.6
20260503181015 74 270 2.6 10.4 0.00 0.00 0.00 37 1020.7
20260503180517 74 253 4.3 10.4 0.00 0.00 0.00 36 1020.8
20260503180034 75 172 3.5 10.4 0.00 0.00 0.00 36 1020.9
20260503175515 74 118 2.6 7.0 0.00 0.00 0.00 36 1020.9
20260503175020 74 261 1.7 8.7 0.00 0.00 0.00 38 1020.9
20260503174531 74 229 3.5 8.7 0.00 0.00 0.00 39 1020.9
20260503174015 73 98 2.6 8.7 0.00 0.00 0.00 38 1020.9
20260503173517 73 42 3.5 8.7 0.00 0.00 0.00 35 1020.9
20260503173030 73 350 2.6 7.8 0.00 0.00 0.00 36 1021.0
20260503172515 74 44 2.6 8.7 0.00 0.00 0.00 40 1021.0
20260503172014 73 236 2.6 8.7 0.00 0.00 0.00 38 1021.1
20260503171532 72 271 2.6 10.4 0.00 0.00 0.00 39 1021.1
20260503171016 72 352 4.3 13.0 0.00 0.00 0.00 40 1021.3
20260503170517 72 71 4.3 13.0 0.00 0.00 0.00 39 1021.2
20260503150517 71 38 3.5 7.8 0.00 0.00 0.00 39 1021.8
20260503131017 61 44 0.9 4.3 0.00 0.00 0.00 68 1021.2
20260503130517 61 0 1.7 4.3 0.00 0.00 0.00 69 1021.2
20260503110518 46 0 0.0 0.0 0.00 0.00 0.00 95 1020.2
20260503081554 48 0 0.0 0.0 0.00 0.26 0.00 88 1019.2
20260503081018 48 0 0.0 0.0 0.00 0.26 0.00 88 1019.2
20260503080516 49 0 0.0 0.0 0.00 0.26 0.00 88 1019.2
20260503072517 50 0 0.0 0.0 0.00 0.47 0.00 89 1018.7
20260503072016 50 0 0.0 0.0 0.00 0.47 0.00 88 1018.7
20260503071534 49 0 0.0 0.0 0.00 0.47 0.00 88 1018.7
20260503071015 50 0 0.0 0.0 0.00 0.47 0.00 89 1018.7
20260503070516 50 0 0.0 0.0 0.00 0.47 0.00 88 1018.8
20260503055015 55 0 0.0 0.0 0.00 0.72 0.00 72 1018.8
20260503054543 55 0 0.0 0.0 0.00 0.72 0.00 73 1018.7
20260503054018 55 0 0.0 1.7 0.00 0.72 0.00 73 1018.7
20260503053516 55 0 0.0 1.7 0.00 0.72 0.00 73 1018.6
20260503053034 55 32 0.0 1.7 0.00 0.72 0.00 73 1018.7
20260503052516 55 0 0.0 1.7 0.00 0.72 0.00 74 1018.7
20260503052017 55 27 0.0 1.7 0.00 0.72 0.00 74 1018.6
20260503051535 55 0 0.0 0.0 0.00 0.72 0.00 75 1018.6
20260503051016 55 0 0.0 0.0 0.00 0.72 0.00 75 1018.6
20260503050516 55 0 0.0 0.0 0.00 0.72 0.00 74 1018.6
20260503050038 55 0 0.0 1.7 0.00 0.72 0.00 75 1018.6
20260503045518 55 0 0.0 2.6 0.00 0.72 0.72 77 1018.5
20260503045020 54 36 0.0 2.6 0.00 0.72 0.72 79 1018.5
20260503044532 54 0 0.0 2.6 0.00 0.72 0.72 80 1018.4
20260503044018 54 37 0.9 1.7 0.00 0.72 0.72 82 1018.4
20260503043518 53 30 0.0 1.7 0.00 0.72 0.72 84 1018.4
20260503043033 53 0 0.0 0.0 0.00 0.72 0.72 86 1018.4
20260503042519 53 0 0.0 0.0 0.00 0.72 0.72 87 1018.4
20260503042018 53 0 0.0 0.0 0.00 0.72 0.72 87 1018.4
20260503041539 53 0 0.0 0.0 0.00 0.72 0.72 88 1018.5
20260503041017 53 0 0.0 0.0 0.00 0.72 0.72 88 1018.4
20260503040517 53 0 0.0 0.0 0.00 0.72 0.72 88 1018.3
20260503040041 53 0 0.0 0.0 0.00 0.72 0.72 88 1018.3
20260503035518 53 0 0.0 0.0 0.00 0.84 0.72 88 1018.2
20260503035018 53 0 0.0 0.0 0.00 0.84 0.72 88 1018.2
20260503034538 53 0 0.0 0.0 0.00 0.84 0.72 87 1018.2
20260503034017 53 0 0.0 0.0 0.00 0.84 0.72 86 1018.1
20260503033517 53 0 0.0 0.0 0.00 0.84 0.72 86 1018.0
20260503033032 53 0 0.0 0.0 0.00 0.84 0.72 84 1018.0
20260503032518 54 0 0.0 0.0 0.00 0.84 0.72 83 1018.0
20260503032022 54 0 0.0 0.0 0.00 0.84 0.72 81 1017.9
20260503031542 55 0 0.0 0.0 0.00 0.84 0.72 80 1017.9
20260503031020 55 0 0.0 0.0 0.00 0.84 0.72 80 1017.8
20260503030519 55 0 0.0 0.0 0.00 0.84 0.72 80 1017.8
20260503030031 56 0 0.0 0.0 0.00 0.84 0.72 80 1017.7
20260503025527 56 0 0.0 0.0 0.00 1.01 0.72 80 1017.7
20260503025018 56 0 0.0 0.0 0.00 1.01 0.72 79 1017.7
20260503024536 56 0 0.0 0.0 0.00 1.01 0.72 77 1017.6
20260503024015 56 0 0.0 0.0 0.00 1.01 0.72 73 1017.6
20260503023517 57 0 0.0 0.0 0.00 1.01 0.72 73 1017.6
20260503023033 58 0 0.0 0.0 0.00 1.01 0.72 72 1017.6
20260503022517 58 0 0.0 0.0 0.00 1.01 0.72 71 1017.4
20260503022017 59 0 0.0 0.0 0.00 1.01 0.72 70 1017.4
20260503021534 60 0 0.0 0.0 0.00 1.01 0.72 69 1017.4
20260503021017 60 0 0.0 0.0 0.00 1.01 0.72 67 1017.3
20260503020518 61 0 0.0 0.0 0.00 1.01 0.72 64 1017.2
20260503020034 61 0 0.0 0.0 0.00 1.01 0.72 60 1017.2
20260503015516 61 0 0.0 0.0 0.00 1.16 0.72 59 1017.1
20260503015016 62 0 0.0 0.0 0.00 1.16 0.72 57 1017.0
20260503014540 62 0 0.0 1.7 0.00 1.16 0.72 56 1017.0
20260503014015 62 0 0.0 1.7 0.00 1.16 0.72 56 1017.0
20260503013518 62 28 0.0 2.6 0.00 1.16 0.72 55 1017.0
20260503013039 62 24 0.0 2.6 0.00 1.16 0.72 55 1016.9